Temperature
15 15 15 15 15 15 15 15 15 15 15 16 16 16 16 15 15 15 15 15 15 15 15 15 14 14 14 14 14 14 14 15 15 15 15 15 15 16
15 15 14 14 14 14 14 15 15 15 15 16 16 16 16 16 15 15 15 15 15 15 15 14 14 14 14 14 14 14 14 14 14 15 15 15 15 15
14 14 14 14 14 14 14 14 14 15 15 15 15 15 15 15 15 15 15 15 15 15 15 14 14 14 14 14 14 14 14 14 14 14 14 14 15 15
14 14 14 14 14 13 13 14 14 14 14 15 15 15 15 15 15 15 15 15 15 14 14 14 14 14 14 14 14 14 14 14 14 14 14 14 14 14
14 14 13 13 13 13 13 13 13 13 13 14 14 15 15 15 15 15 14 14 14 14 14 14 14 14 14 14 14 14 14 14 14 14 14 14 14 14
14 13 13 13 13 13 13 13 13 13 13 13 14 14 14 15 15 14 14 14 14 14 14 14 14 14 14 14 14 14 14 14 14 14 14 14 14 14
14 13 13 13 13 13 13 13 13 13 13 13 13 13 14 14 14 15 14 14 14 14 14 14 14 14 14 14 14 14 14 14 14 14 14 14 14 14
14 14 13 13 13 13 13 13 13 13 13 13 13 13 14 14 14 14 14 14 14 14 14 14 14 14 14 14 14 13 14 14 14 14 14 14 14 14
14 14 14 14 13 13 13 13 13 13 13 13 13 13 13 13 14 14 14 14 14 14 14 14 14 14 14 13 13 13 13 13 13 13 13 13 13 13
14 14 14 14 14 14 13 13 13 13 13 13 13 13 13 13 13 13 13 13 13 13 13 13 14 14 14 13 13 13 13 13 13 13 13 13 13 13
14 14 14 14 14 14 14 13 13 13 13 13 13 13 13 13 13 13 13 13 13 14 13 13 13 13 13 14 13 13 13 13 13 13 13 13 13 13
14 14 14 14 14 14 14 13 13 13 13 13 13 13 13 13 13 13 13 13 13 13 14 13 13 13 13 14 14 14 14 13 13 13 12 12 12 12
14 14 14 14 14 14 13 13 13 13 13 13 13 13 13 13 13 13 13 13 13 13 13 13 13 13 12 13 13 14 14 14 13 13 13 12 12 12
13 13 13 13 13 13 13 13 13 13 13 13 13 13 13 13 13 13 13 13 13 13 12 12 12 12 12 12 12 13 13 13 13 13 13 12 12 12
13 13 13 13 13 13 13 13 13 13 12 13 13 12 12 12 12 12 12 12 12 12 12 11 11 12 11 12 12 12 12 12 12 12 12 12 12 12
12 12 12 13 12 12 12 12 12 12 12 12 12 12 12 12 12 12 12 12 11 11 11 11 11 11 11 11 11 11 11 11 11 12 12 12 12 12
12 12 12 12 12 12 12 12 12 11 12 12 11 11 11 11 11 11 11 11 11 11 11 11 11 11 11 10 10 11 11 11 11 10 10 11 11 11
12 12 12 12 12 11 11 11 11 11 11 11 11 11 11 11 11 10 10 11 11 10 10 10 10 10 10 10 10 10 10 10 10 10 10 10 11 11
11 11 11 11 11 11 11 11 11 11 11 10 10 10 10 10 10 10 10 10 10 10 10 10 10 10 10 10 10 10 10 10 10 10 10 10 10 10
10 10 10 10 10 10 10 10 10 10 10 10 10 10 10 10 10 10 10 10 10 10 10 10 10 9 9 9 9 10 10 9 9 9 9 9 9 9
10 10 10 10 10 10 10 10 10 10 10 9 9 9 9 9 9 9 9 9 9 9 9 9 9 9 9 9 9 10 9 9 9 9 9 9 9 9
9 9 9 9 9 9 9 9 9 9 9 9 9 9 9 9 9 9 9 9 9 9 9 9 9 9 9 8 9 9 9 9 8 8 8 8 8 8
9 9 9 9 8 8 9 9 8 8 8 8 8 8 8 8 8 8 8 8 8 8 8 8 8 8 8 8 8 8 8 8 8 8 8 8 8 8
Wind_Speed
7 7 6 5 5 5 5 5 5 5 6 5 4 6 9 13 15 15 13 11 9 6 4 3 2 4 5 5 6 7 7 8 8 9 9 9 8 7
6 7 7 6 6 5 5 5 4 4 5 5 5 4 6 10 14 15 14 13 11 9 6 5 3 2 2 3 4 5 6 6 7 8 9 9 9 9
5 7 8 7 7 6 5 5 4 4 4 3 2 3 6 7 8 11 12 12 12 11 9 7 6 4 2 1 1 2 3 4 5 6 6 7 8 9
5 5 6 6 7 7 6 5 4 4 3 3 2 3 5 7 7 7 8 11 12 12 12 10 8 7 5 4 2 1 1 1 2 3 4 5 6 7
4 5 5 6 7 6 7 6 4 4 3 3 3 2 2 3 4 4 4 4 9 11 13 12 11 9 8 6 5 4 2 1 1 1 2 4 5 6
3 3 4 5 6 6 6 7 6 5 4 3 3 2 2 3 4 4 4 4 5 7 10 11 12 11 10 9 8 7 6 5 4 3 3 3 3 4
4 4 4 6 7 6 5 6 6 5 4 4 4 3 3 3 5 5 6 4 4 4 4 5 7 8 10 12 12 11 9 8 7 6 4 4 3 3
5 5 5 6 9 10 9 9 9 7 6 5 4 5 5 5 5 5 5 4 4 5 6 5 4 6 9 13 14 13 13 11 10 9 7 6 5 4
6 5 5 6 9 6 8 10 10 11 11 7 6 7 6 7 6 6 7 7 7 5 6 5 5 7 8 14 17 17 16 15 13 12 10 9 7 6
6 7 7 6 7 8 7 7 7 8 9 9 8 8 8 7 8 8 9 7 3 4 6 6 5 6 5 12 18 20 20 18 17 15 13 12 10 8
5 5 7 7 9 10 7 7 7 6 8 11 12 11 12 12 9 5 5 5 5 5 6 5 4 4 3 4 13 21 23 22 20 18 16 15 13 10
2 2 5 7 7 8 7 7 7 6 4 4 5 7 7 7 10 9 8 6 4 5 6 7 4 4 3 3 3 10 16 20 22 20 19 18 16 11
2 1 1 4 5 5 6 6 7 5 3 3 3 3 2 3 4 5 6 7 7 5 5 6 5 5 4 2 2 3 6 8 12 15 18 19 19 15
3 1 2 3 3 3 3 4 4 3 2 1 1 2 2 2 3 3 4 6 6 5 6 7 5 6 5 4 3 2 3 5 7 6 11 16 18 19
2 3 3 3 2 1 1 2 2 2 2 1 1 1 2 1 0 1 1 1 1 1 3 6 5 4 5 5 4 3 3 4 7 7 7 7 7 8
1 2 4 4 2 1 1 1 1 2 2 2 1 1 0 1 1 1 1 1 1 1 1 2 4 5 4 4 4 4 4 4 5 8 7 7 8 13
2 2 1 1 0 1 0 0 0 1 1 1 1 1 0 0 0 0 1 1 1 1 1 0 1 1 2 4 4 5 5 4 4 5 6 7 8 9
3 2 1 1 0 0 0 0 0 1 1 1 1 1 1 1 1 1 1 1 2 2 2 2 2 1 0 2 6 5 5 5 5 6 6 6 7 8
5 4 3 2 2 2 1 1 1 1 1 1 1 0 1 1 1 2 2 2 3 3 3 2 3 3 3 4 4 9 6 4 4 5 7 8 7 6
5 4 4 4 3 3 3 2 2 2 2 1 1 1 1 1 1 2 2 3 3 3 3 3 4 5 5 4 3 4 10 7 5 5 5 5 6 5
5 5 5 4 4 4 3 3 3 3 3 2 2 2 2 1 1 2 2 4 3 3 4 4 5 7 3 2 3 3 3 9 9 5 4 4 4 3
5 5 5 5 5 4 4 4 4 4 4 3 3 3 2 2 2 3 3 3 3 4 4 4 2 1 3 4 6 5 3 2 4 7 6 5 3 4
4 4 4 5 5 4 4 4 4 4 4 3 3 3 3 2 2 3 3 3 3 4 4 3 2 2 3 4 5 5 5 3 2 2 2 1 2 2
Wind_Direction
202 195 192 190 181 175 169 172 175 195 219 220 202 196 188 187 188 184 184 186 185 184 178 152 108 80 65 60 54 48 44 39 38 39 40 43 43 44
199 198 200 195 187 178 180 183 181 180 210 219 210 192 180 190 193 190 190 191 192 193 193 186 168 137 94 66 52 47 44 39 38 39 40 42 46 48
202 203 207 194 186 182 176 176 183 173 197 226 212 191 174 176 177 190 196 196 198 200 201 200 197 194 195 193 34 33 35 37 39 40 41 44 49 48
201 202 205 195 186 178 174 176 182 178 184 203 211 187 185 184 174 181 193 201 202 207 207 207 207 210 215 223 232 260 334 22 38 46 46 49 54 52
193 196 195 185 181 175 171 174 180 184 177 188 208 204 178 155 151 184 192 196 205 212 212 213 214 217 221 225 229 234 236 223 184 99 81 76 63 55
188 186 180 178 175 171 172 173 171 175 177 185 198 208 199 158 154 173 190 205 207 204 208 211 215 221 224 226 228 228 226 218 203 180 149 126 96 75
197 195 194 194 193 187 181 175 171 177 182 194 200 193 191 171 193 187 198 189 212 199 194 207 208 219 224 227 228 227 223 218 211 200 185 169 155 133
205 210 216 218 219 216 211 198 187 187 195 199 203 207 209 206 192 186 179 172 227 209 185 219 192 218 222 224 226 225 222 218 214 209 204 198 191 181
207 209 223 225 222 222 229 228 220 216 208 200 209 217 213 208 193 194 194 199 214 186 173 217 201 225 222 224 224 223 222 220 216 212 210 207 202 199
211 211 220 234 222 212 216 223 230 233 228 225 224 229 226 215 203 205 206 213 214 179 170 204 204 219 219 218 223 220 219 218 216 213 211 210 207 206
221 219 216 227 236 220 207 222 237 245 245 237 234 237 238 231 209 192 184 185 221 219 190 199 203 203 218 225 225 221 216 215 215 214 212 210 210 209
227 243 224 220 231 210 197 206 228 243 241 250 244 249 244 238 217 203 196 195 202 225 197 190 182 159 240 252 216 215 213 214 213 214 214 212 210 203
186 225 247 216 212 206 196 204 227 231 223 232 243 252 249 236 222 211 204 204 209 223 193 176 178 177 204 228 266 214 196 197 206 215 218 216 212 202
171 188 211 178 172 189 199 219 230 213 186 204 220 244 248 249 240 220 211 213 216 216 191 178 182 183 184 197 235 233 205 200 197 205 212 219 220 216
167 178 173 152 122 120 223 198 150 141 151 168 212 241 253 257 212 148 137 153 145 180 183 189 183 176 185 200 200 185 199 216 207 212 211 212 212 208
85 101 110 103 84 359 9 52 119 159 161 176 198 218 39 61 76 100 137 146 173 236 66 165 185 181 192 195 185 194 194 207 206 213 215 220 221 218
113 94 87 77 12 345 330 284 156 123 123 138 139 137 120 88 87 111 138 158 186 203 215 142 96 135 186 180 199 209 203 210 205 193 203 227 231 225
110 98 88 80 88 232 191 86 88 117 138 138 134 154 196 236 250 225 209 218 241 240 225 195 162 139 257 252 217 217 216 220 206 194 196 219 243 229
80 78 72 66 58 59 68 77 60 44 97 103 105 198 251 255 252 250 242 248 258 260 246 204 188 192 221 252 244 213 212 213 200 201 208 216 237 231
61 65 59 54 51 51 52 50 47 43 49 50 36 0 314 274 270 272 262 256 262 265 262 228 214 215 225 235 242 236 213 212 210 222 223 224 243 247
51 50 46 43 41 42 44 44 44 41 38 38 28 10 346 323 296 290 283 280 269 263 265 259 246 233 225 211 250 261 238 220 224 224 219 219 228 227
52 51 45 41 37 37 38 42 45 40 34 33 20 7 356 346 314 301 293 283 271 265 268 269 263 191 188 221 248 258 253 230 233 241 242 232 220 231
52 53 48 38 34 33 34 39 44 36 27 17 4 351 343 333 316 301 294 288 284 283 280 277 256 220 226 236 254 265 267 257 230 232 236 258 263 305
Height
1508 1510 1512 1515 1518 1520 1523 1525 1528 1530 1531 1533 1534 1536 1538 1539 1540 1541 1541 1541 1541 1541 1540 1540 1539 1539 1538 1538 1538 1538 1538 1538 1538 1538 1537 1537 1537 1537
1503 1505 1506 1509 1512 1515 1517 1520 1523 1526 1527 1529 1531 1533 1535 1537 1538 1539 1539 1539 1540 1539 1539 1539 1538 1538 1537 1537 1537 1537 1537 1537 1537 1537 1536 1536 1536 1536
1499 1500 1502 1504 1507 1509 1512 1515 1518 1521 1523 1526 1528 1530 1532 1533 1535 1536 1537 1537 1538 1538 1538 1537 1537 1537 1536 1536 1536 1536 1536 1536 1536 1536 1535 1535 1535 1535
1496 1497 1498 1500 1501 1504 1506 1509 1513 1516 1519 1522 1524 1526 1528 1530 1531 1533 1534 1535 1535 1536 1536 1536 1535 1535 1535 1534 1534 1534 1534 1534 1534 1534 1534 1534 1534 1534
1494 1494 1495 1496 1497 1500 1502 1505 1508 1511 1514 1518 1520 1523 1525 1526 1528 1529 1530 1531 1532 1533 1533 1533 1533 1533 1533 1533 1532 1532 1532 1532 1532 1532 1532 1532 1532 1532
1493 1493 1494 1495 1496 1498 1500 1502 1504 1507 1510 1513 1516 1518 1521 1522 1524 1525 1526 1527 1528 1530 1530 1531 1531 1531 1531 1531 1530 1530 1530 1530 1530 1530 1530 1530 1530 1530
1493 1493 1494 1495 1496 1497 1498 1500 1502 1504 1507 1509 1512 1514 1516 1517 1519 1520 1522 1523 1524 1526 1526 1527 1527 1528 1528 1528 1528 1527 1527 1527 1527 1527 1527 1527 1528 1528
1493 1493 1494 1495 1496 1497 1498 1499 1501 1502 1504 1506 1507 1509 1511 1513 1515 1516 1517 1518 1519 1521 1522 1522 1523 1524 1525 1525 1525 1524 1524 1524 1524 1524 1524 1524 1524 1525
1492 1493 1493 1494 1495 1496 1497 1498 1499 1500 1501 1503 1504 1505 1507 1509 1511 1511 1512 1513 1514 1516 1517 1517 1518 1519 1521 1521 1521 1521 1521 1521 1521 1521 1521 1521 1521 1521
1491 1492 1492 1493 1494 1495 1495 1496 1497 1497 1498 1499 1500 1501 1503 1504 1505 1506 1507 1509 1510 1510 1512 1512 1513 1514 1516 1516 1517 1518 1518 1518 1518 1518 1518 1518 1518 1518
1489 1490 1490 1491 1492 1492 1493 1493 1494 1494 1495 1496 1496 1497 1498 1499 1500 1501 1502 1503 1503 1504 1506 1507 1507 1509 1510 1511 1513 1513 1514 1514 1514 1514 1514 1514 1514 1514
1486 1487 1488 1489 1490 1490 1490 1490 1490 1491 1492 1492 1492 1493 1494 1494 1495 1496 1497 1498 1498 1499 1500 1501 1502 1504 1505 1506 1507 1509 1509 1510 1510 1510 1510 1510 1510 1510
1483 1485 1486 1487 1487 1487 1487 1487 1487 1487 1487 1488 1488 1489 1489 1490 1490 1491 1492 1493 1493 1494 1495 1496 1497 1498 1500 1501 1502 1504 1505 1505 1506 1506 1506 1506 1506 1506
1481 1482 1483 1484 1484 1484 1484 1484 1484 1484 1484 1485 1485 1486 1486 1486 1486 1487 1487 1487 1488 1489 1490 1491 1492 1493 1494 1495 1497 1498 1500 1501 1501 1502 1502 1502 1502 1502
1478 1479 1480 1481 1481 1481 1481 1481 1481 1481 1482 1482 1483 1483 1483 1483 1483 1483 1483 1483 1483 1484 1485 1486 1487 1488 1489 1490 1491 1493 1494 1495 1496 1497 1497 1498 1497 1497
1476 1477 1478 1478 1478 1478 1479 1479 1479 1479 1480 1480 1480 1481 1481 1481 1480 1480 1480 1480 1480 1480 1481 1482 1482 1483 1484 1484 1485 1485 1487 1489 1490 1492 1492 1493 1493 1492
1474 1475 1476 1476 1476 1476 1477 1477 1477 1478 1478 1478 1478 1478 1478 1478 1478 1478 1478 1477 1477 1477 1477 1477 1478 1478 1478 1479 1479 1480 1481 1482 1484 1485 1485 1486 1487 1487
1473 1474 1474 1475 1475 1475 1475 1476 1476 1476 1476 1477 1477 1476 1476 1476 1476 1476 1476 1476 1475 1475 1475 1475 1475 1475 1475 1475 1476 1475 1476 1476 1477 1478 1478 1479 1479 1481
1473 1473 1473 1474 1474 1474 1474 1475 1475 1475 1475 1475 1475 1475 1475 1475 1474 1474 1474 1473 1473 1473 1473 1472 1472 1472 1472 1471 1471 1472 1472 1471 1471 1471 1472 1472 1472 1473
1473 1473 1473 1474 1474 1474 1474 1474 1474 1474 1474 1474 1474 1474 1473 1473 1472 1472 1471 1471 1470 1470 1470 1469 1469 1469 1468 1468 1467 1467 1467 1467 1467 1466 1466 1466 1466 1467
1475 1475 1475 1474 1474 1474 1474 1473 1473 1473 1473 1473 1472 1472 1471 1471 1470 1470 1469 1468 1467 1467 1466 1466 1465 1465 1464 1463 1463 1462 1463 1462 1462 1461 1460 1460 1459 1459
1477 1476 1476 1475 1475 1474 1474 1473 1473 1472 1472 1471 1471 1470 1469 1469 1468 1467 1466 1465 1464 1463 1462 1462 1461 1460 1460 1459 1458 1457 1457 1457 1456 1456 1455 1455 1454 1452
1478 1478 1477 1476 1475 1474 1473 1473 1472 1471 1470 1470 1469 1468 1468 1467 1466 1464 1463 1462 1460 1459 1458 1457 1456 1456 1455 1454 1453 1452 1451 1451 1450 1450 1449 1448 1448 1447